Elmira, NY
on Wednesday, December 6, 2017

Wednesday
       
Previous Day Next Day
Daily Summary
 ActualAverageRecord
Temperature
Mean Temperature °F °C °F °C  
Max Temperature 39°F 4°C 40°F 4°C 69°F 20°C (1998)
Min Temperature 30°F -1°C 22°F -5°C 1°F -17°C (1971)
Degree Days
Heating Degree Days 30    
Moisture
Dew Point 19°F -7°C   
Average Humidity 53    
Maximum Humidity 66    
Minimum Humidity 39    
Precipitation
Precipitation 0.00 in / 0.00 cm in / cm in / cm ()
Wind
Wind Speed 12 mph / 19 km/h   
Max Wind Speed 17 mph / 27 km/h   
Max Gust Speed 30 mph / 48 km/h   
Visibility 10 miles / 16 kilometers   
Events     
Averages and records for this station are not official NWS values.
Key: T is trace of precipitation, MM is missing value
Source: NWS Daily Summary
Seasonal Weather Averages
Time(EST)TemperatureDew PointHumidity Pressure Visibility Wind DirectionWind SpeedGust SpeedPrecipitationEvents Conditions
12:53 AM 39.9°F 4.4°C 21.9°F -5.6°C 49% 29.86 in / 1011.2 hPa 10.0 miles / 16.1 kilometers West 13.8 mph / 22.2 km/h 24.2 mph / 38.9 km/h N/A   Clear
1:53 AM 37.0°F 2.8°C 21.0°F -6.1°C 52% 29.91 in / 1012.6 hPa 10.0 miles / 16.1 kilometers West 13.8 mph / 22.2 km/h 24.2 mph / 38.9 km/h N/A   Clear
2:53 AM 35.1°F 1.7°C 19.0°F -7.2°C 52% 29.93 in / 1013.3 hPa 10.0 miles / 16.1 kilometers West 17.3 mph / 27.8 km/h 27.6 mph / 44.4 km/h N/A   Clear
3:53 AM 33.1°F 0.6°C 18.0°F -7.8°C 54% 29.95 in / 1014.1 hPa 10.0 miles / 16.1 kilometers WSW 12.7 mph / 20.4 km/h 21.9 mph / 35.2 km/h N/A   Partly Cloudy
4:53 AM 30.9°F -0.6°C 18.0°F -7.8°C 59% 29.96 in / 1014.3 hPa 10.0 miles / 16.1 kilometers WSW 6.9 mph / 11.1 km/h - N/A   Clear
5:53 AM 30.9°F -0.6°C 17.1°F -8.3°C 57% 29.97 in / 1014.7 hPa 10.0 miles / 16.1 kilometers WSW 9.2 mph / 14.8 km/h - N/A   Clear
6:53 AM 30.0°F -1.1°C 16.0°F -8.9°C 56% 29.97 in / 1014.7 hPa 10.0 miles / 16.1 kilometers WSW 9.2 mph / 14.8 km/h - N/A   Clear
7:53 AM 30.0°F -1.1°C 16.0°F -8.9°C 56% 29.97 in / 1014.7 hPa 10.0 miles / 16.1 kilometers WSW 8.1 mph / 13.0 km/h - N/A   Clear
8:53 AM 32.0°F 0.0°C 16.0°F -8.9°C 52% 29.96 in / 1014.3 hPa 10.0 miles / 16.1 kilometers SW 11.5 mph / 18.5 km/h - N/A   Clear
9:53 AM 34.0°F 1.1°C 14.0°F -10.0°C 44% 29.96 in / 1014.6 hPa 10.0 miles / 16.1 kilometers SW 16.1 mph / 25.9 km/h 23.0 mph / 37.0 km/h N/A   Clear
10:53 AM 36.0°F 2.2°C 14.0°F -10.0°C 41% 29.95 in / 1014.0 hPa 10.0 miles / 16.1 kilometers WSW 17.3 mph / 27.8 km/h 25.3 mph / 40.7 km/h N/A   Clear
11:53 AM 37.9°F 3.3°C 15.1°F -9.4°C 39% 29.93 in / 1013.3 hPa 10.0 miles / 16.1 kilometers WSW 16.1 mph / 25.9 km/h - N/A   Clear
12:53 PM 39.9°F 4.4°C 18.0°F -7.8°C 41% 29.91 in / 1012.9 hPa 10.0 miles / 16.1 kilometers WSW 11.5 mph / 18.5 km/h 23.0 mph / 37.0 km/h N/A   Mostly Cloudy
1:53 PM 37.9°F 3.3°C 19.0°F -7.2°C 47% 29.92 in / 1013.2 hPa 10.0 miles / 16.1 kilometers West 17.3 mph / 27.8 km/h 29.9 mph / 48.2 km/h N/A   Overcast
2:53 PM 39.0°F 3.9°C 19.9°F -6.7°C 46% 29.92 in / 1013.1 hPa 10.0 miles / 16.1 kilometers WSW 9.2 mph / 14.8 km/h - N/A   Overcast
3:53 PM 39.0°F 3.9°C 21.0°F -6.1°C 49% 29.92 in / 1013.2 hPa 10.0 miles / 16.1 kilometers SW 11.5 mph / 18.5 km/h - N/A   Overcast
4:53 PM 37.0°F 2.8°C 21.9°F -5.6°C 54% 29.91 in / 1012.7 hPa 10.0 miles / 16.1 kilometers SW 9.2 mph / 14.8 km/h - N/A   Overcast
5:53 PM 37.0°F 2.8°C 21.9°F -5.6°C 54% 29.92 in / 1013.0 hPa 10.0 miles / 16.1 kilometers SW 6.9 mph / 11.1 km/h - N/A   Overcast
6:53 PM 36.0°F 2.2°C 23.0°F -5.0°C 59% 29.91 in / 1012.7 hPa 10.0 miles / 16.1 kilometers SW 3.5 mph / 5.6 km/h - N/A   Overcast
7:53 PM 33.1°F 0.6°C 23.0°F -5.0°C 66% 29.90 in / 1012.5 hPa 10.0 miles / 16.1 kilometers WSW 3.5 mph / 5.6 km/h - N/A   Mostly Cloudy
8:53 PM 35.1°F 1.7°C 23.0°F -5.0°C 61% 29.90 in / 1012.5 hPa 10.0 miles / 16.1 kilometers WSW 6.9 mph / 11.1 km/h - N/A   Mostly Cloudy
9:53 PM 33.1°F 0.6°C 23.0°F -5.0°C 66% 29.91 in / 1012.6 hPa 10.0 miles / 16.1 kilometers WNW 8.1 mph / 13.0 km/h - N/A   Scattered Clouds
10:53 PM 37.0°F 2.8°C 23.0°F -5.0°C 57% 29.90 in / 1012.5 hPa 10.0 miles / 16.1 kilometers WSW 6.9 mph / 11.1 km/h - N/A   Overcast
11:53 PM 37.0°F 2.8°C 19.9°F -6.7°C 50% 29.91 in / 1012.7 hPa 10.0 miles / 16.1 kilometers West 9.2 mph / 14.8 km/h - N/A   Scattered Clouds